Regional Weather Roundup
Issued by NWS

Home | Current Version | Previous Version | Text Only | Print | Product List | Glossary On
Versions: 1 2 3 4 5 6 7 8 9 10 11 12 13 14 15 16 17 18 19 20 21 22 23 24 25 26 27 28 29 30 31 32 33 34 35 36 37 38 39 40 41 42 43 44 45 46 47 48 49 50
000
ASUS46 KSEW 230210
RWRWA

WASHINGTON REGIONAL WEATHER ROUNDUP
NATIONAL WEATHER SERVICE SEATTLE WA
600 PM PST MON DEC 22 2014

NOTE:"FAIR" INDICATES FEW OR NO CLOUDS BELOW 12,000 FEET WITH NO
SIGNIFICANT WEATHER AND/OR OBSTRUCTIONS TO VISIBILITY.

WAZ505-507>509-230300-
SEATTLE, TACOMA, EVERETT, AND VICINITY

CITY           SKY/WX    TMP DP  RH WIND       PRES   REMARKS
EVERETT        PTCLDY    47  39  74 NE3       30.36F
BOEING FIELD   MOCLDY    50  41  71 CALM      30.36F
RENTON         PTCLDY    46  41  82 CALM      30.36F
SEATAC AIRPORT MOCLDY    47  38  71 CALM      30.36F
JBLM-MCCHORD   MOCLDY    44  44  99 N1        30.36S
PUYALLUP       NOT AVBL
JBLM-FT LEWIS  PTCLDY    44  44  99 S1        30.35S
TACOMA NARROWS MOCLDY    44  41  89 CALM      30.35S
$$

WAZ001-503-506-510-514-515-230300-
NORTH INTERIOR

CITY           SKY/WX    TMP DP  RH WIND       PRES   REMARKS
BELLINGHAM     PTCLDY    42  39  89 CALM      30.38R
FRIDAY HARBOR  MOCLDY    42  41  96 CALM      30.38S
EASTSOUND      MOCLDY    41  41 100 CALM      30.37R
PORT ANGELES   CLOUDY    42  39  89 CALM      30.35F
NAS WHIDBEY    MOCLDY    46  40  79 SE5       30.37F
BURLINGTON     PTCLDY    43  43 100 CALM      30.38S
$$

WAZ020-022-039-040-504-511-512-230300-
SOUTHWEST INTERIOR

CITY           SKY/WX    TMP DP  RH WIND       PRES   REMARKS
SHELTON        CLOUDY    44  42  93 CALM      30.34R
OLYMPIA        CLOUDY    45  43  93 NW3       30.36S
CHEHALIS       CLOUDY    46  46 100 CALM      30.35S
KELSO          CLOUDY    48  45  87 CALM      30.38F
VANCOUVER      CLOUDY    47  43  86 CALM      30.34S
SCAPPOOSE, OR  MOCLDY    47  45  93 W3        30.34S
PORTLAND, OR   MOCLDY    49  45  86 CALM      30.35S
$$

WAZ021-516-517-230300-
WASHINGTON COAST

CITY           SKY/WX    TMP DP  RH WIND       PRES   REMARKS
FORKS          CLOUDY    45  44  97 E5        30.32F
HOQUIAM        CLOUDY    48  46  93 E3        30.33S
ASTORIA, OR    CLOUDY    49  45  86 E6        30.32F
$$

WAZ019-023-024-040-518-519-230300-
CASCADE MOUNTAINS AND COLUMBIA GORGE

CITY           SKY/WX    TMP DP  RH WIND       PRES   REMARKS
TROUTDALE, OR  CLOUDY    46  43  89 E3        30.33S
THE DALLES, OR CLOUDY    51  39  63 W9        30.33S
$$

WAZ026-027-041>044-520-521-230300-
EAST SLOPES

CITY           SKY/WX    TMP DP  RH WIND       PRES   REMARKS
OMAK           CLEAR     34  28  79 NW6       30.32R
WENATCHEE      PTCLDY    43  29  57 N8        30.32R
ELLENSBURG     CLOUDY    43  32  65 NW8       30.30S
YAKIMA         PTCLDY    47  29  49 NE5       30.32R
$$

WAZ028-034-035-230300-
COLUMBIA BASIN

CITY           SKY/WX    TMP DP  RH WIND       PRES   REMARKS
EPHRATA        PTCLDY    43  28  55 N3        30.30R
MOSES LAKE     PTCLDY    40  30  67 CALM      30.32R
PASCO          MOCLDY    46  34  62 CALM      30.35R
HERMISTON, OR  PTCLDY    44  36  73 S6        30.33S
$$

WAZ036>038-230300-
NORTHEAST WASHINGTON

CITY           SKY/WX    TMP DP  RH WIND       PRES   REMARKS
SPOKANE GEIGER PTCLDY    35  28  75 SW9       30.26R
SPOKANE FELTS  PTCLDY    37  30  75 CALM      30.28R
FAIRCHILD AFB  MOCLDY    35  27  74 W7        30.26F
COEURDALENE,ID CLEAR     36  28  75 SW8       30.25S
DEER PARK      PTCLDY    30  24  78 CALM      30.26S
$$

WAZ029>033-230300-
SOUTHEAST WASHINGTON

CITY           SKY/WX    TMP DP  RH WIND       PRES   REMARKS
PULLMAN        MOCLDY    36  28  73 SW7       30.31R
LEWISTON, ID   MOCLDY    43  30  60 SW7       30.32R
WALLA WALLA    CLEAR     43  33  68 SE7       30.33R
PENDLETON, OR  PTCLDY    45  36  70 CALM      30.31F
$$


USA.gov is the U.S. government's official web portal to all federal, state and local government web resources and services.